GFSWCAN_850_spd_147.txt.gz
Wind_Speed
26 25 23 23 23 25 26 26 24 23 22 22 18 16 14 13 10 10 10 9 6 6 11 12 12 8 5 5 3 2 2 4 5 4 3 3 3 2 3 6 5 10 7 6 7 7 9 12 8 6 3 1 5 11
26 23 22 21 23 25 27 26 27 23 23 23 19 18 17 15 12 11 11 9 10 11 11 20 17 17 19 11 5 6 4 2 4 4 3 2 4 3 4 4 6 6 9 3 10 6 4 15 16 12 10 12 18 20
22 21 21 22 22 25 27 27 25 23 22 22 19 20 19 18 16 14 12 11 11 9 15 11 7 9 19 26 21 8 6 6 3 4 4 3 7 3 4 6 5 9 17 6 3 8 20 28 29 23 22 22 17 12
25 25 24 24 26 27 30 30 26 21 22 21 20 20 21 19 18 17 15 11 10 6 6 5 8 7 7 11 22 25 15 7 7 4 5 4 4 8 4 7 9 7 11 10 15 22 28 31 27 25 18 12 12 13
29 29 29 29 29 30 30 31 25 19 22 21 20 20 21 19 19 20 19 16 14 9 5 9 16 23 20 17 15 21 25 14 9 6 7 5 6 3 9 7 13 18 12 12 8 13 17 11 4 7 11 12 16 18
29 30 32 32 32 31 31 28 23 20 21 20 19 21 22 20 19 19 9 15 25 17 4 4 7 10 10 9 13 13 14 13 13 7 8 10 11 5 5 6 10 21 33 31 14 11 11 10 11 14 18 18 15 17
26 27 28 30 30 30 29 27 22 22 21 21 20 21 22 23 24 24 7 3 5 19 5 6 5 5 8 9 8 8 11 7 10 7 9 12 9 9 4 10 8 18 29 32 32 23 18 19 12 9 14 17 19 20
22 22 23 23 23 24 24 24 23 22 22 20 19 19 19 24 25 30 30 19 12 13 7 3 2 2 9 5 5 8 7 8 9 8 6 6 7 7 7 18 32 39 25 23 27 28 26 17 20 22 19 18 17 16
21 22 22 22 21 22 22 22 21 22 21 19 16 13 18 29 27 28 25 23 19 13 5 7 3 1 11 5 5 6 5 4 6 6 6 9 6 8 17 16 24 23 20 16 20 27 24 23 23 22 19 17 17 14
20 21 21 21 20 20 23 20 19 19 18 15 16 12 9 11 22 16 8 9 17 12 13 7 8 5 16 11 7 6 5 3 4 6 6 6 8 36 51 36 26 19 22 24 16 20 25 25 24 19 16 15 14 15
23 21 19 19 21 21 19 19 19 17 14 24 14 9 9 13 15 9 8 9 10 5 9 11 25 8 8 4 4 10 3 3 4 3 5 4 5 12 32 36 39 41 38 32 33 26 26 18 16 16 17 15 12 11
23 22 21 21 18 18 18 17 16 17 14 17 10 16 21 9 7 6 5 6 6 6 11 9 8 15 8 7 5 9 4 4 7 7 3 5 6 25 21 22 17 16 23 35 33 34 34 28 22 22 18 14 10 10
25 24 22 20 19 16 15 16 16 20 20 21 9 10 10 9 7 8 11 6 6 8 14 14 5 11 8 8 3 4 7 7 2 4 5 6 16 20 14 15 12 11 14 23 31 33 36 33 24 22 17 13 12 12
27 25 24 23 19 16 16 13 18 16 14 10 10 6 7 7 9 7 5 5 9 10 23 23 9 7 7 6 4 5 4 2 4 5 9 5 23 18 12 17 13 15 16 17 20 20 22 23 20 19 16 14 15 14
26 25 25 25 21 17 16 15 17 16 12 9 8 7 10 14 6 2 10 7 7 19 30 14 5 6 4 4 5 4 5 7 8 7 4 11 8 10 17 16 12 20 23 25 24 25 24 22 20 18 17 17 19 18
24 25 30 25 21 20 20 18 12 16 9 7 8 6 11 3 7 8 9 6 11 20 15 6 4 4 6 5 8 11 6 9 6 4 22 17 17 13 10 7 12 18 28 31 30 29 27 25 22 19 19 20 23 22
23 27 20 17 18 18 16 15 11 10 9 7 10 20 22 11 11 12 17 17 23 24 5 5 7 13 4 5 6 7 7 10 7 15 15 15 21 19 15 15 18 19 28 35 34 32 30 25 23 23 22 20 23 25
31 28 25 16 18 17 16 16 9 8 10 17 7 18 19 28 24 22 18 21 24 19 15 7 6 7 6 6 4 4 13 22 21 25 31 25 29 32 28 24 21 19 27 38 39 36 29 27 27 24 21 20 22 24
34 32 26 20 19 13 7 10 12 7 18 20 29 27 17 21 26 27 22 27 35 26 10 5 6 5 5 7 13 26 28 29 25 28 31 34 34 37 36 30 26 26 30 36 39 40 36 32 30 27 28 29 30 29
34 31 27 23 22 14 7 8 12 9 8 16 28 30 24 28 28 24 26 29 32 19 8 5 7 19 21 29 30 34 32 31 32 31 32 34 36 37 36 40 41 35 29 34 35 37 38 37 37 37 33 35 38 36
32 32 30 27 28 24 9 8 11 8 9 15 22 11 13 20 20 22 24 21 18 8 7 27 38 44 42 46 46 41 42 33 33 35 38 40 38 38 40 38 35 34 34 37 41 41 39 41 45 43 42 41 38 36
33 31 32 30 20 12 13 17 8 9 14 14 9 8 10 9 17 20 14 16 13 32 35 38 40 39 41 45 50 49 46 46 47 47 50 47 44 41 42 45 43 42 40 43 43 45 41 38 35 33 38 37 33 32
31 30 22 17 14 14 6 16 11 12 6 5 9 8 9 12 18 14 9 19 31 41 42 42 42 45 50 54 52 52 49 46 47 44 44 44 44 44 43 39 39 39 39 41 43 41 39 33 33 37 35 31 30 28
30 15 13 15 17 6 8 10 8 7 9 11 8 14 11 8 9 7 12 21 36 40 36 37 40 44 45 45 47 51 52 44 45 47 45 42 42 43 37 39 38 41 45 43 39 34 32 31 32 30 27 26 26 25
12 11 11 6 12 8 7 6 7 7 8 6 10 11 5 1 4 9 13 21 36 34 37 38 39 40 41 46 47 46 47 41 38 39 42 37 40 38 34 36 39 41 40 38 34 31 29 30 30 27 24 23 23 22
10 14 10 11 10 8 9 6 8 11 10 11 8 6 6 7 14 9 10 21 25 31 31 31 34 34 37 39 43 44 48 35 30 33 40 40 34 35 39 35 33 40 34 31 29 27 25 23 22 22 21 19 19 21
7 6 10 11 7 8 5 3 6 4 6 7 5 7 7 7 8 8 22 27 30 29 27 28 32 35 36 40 42 42 43 36 33 34 37 34 33 33 31 33 35 32 27 20 17 16 16 17 17 17 17 17 19 19
8 17 9 13 8 10 4 4 7 7 5 8 4 7 6 8 14 31 32 32 35 43 45 47 47 51 49 45 48 49 44 32 34 34 27 27 27 27 27 27 27 27 26 20 15 13 15 17 17 15 16 18 19 20
6 10 13 6 6 6 7 7 7 15 23 19 13 18 20 35 36 35 41 42 42 43 45 52 52 47 44 48 41 41 33 31 27 28 30 29 25 24 20 20 20 17 18 18 15 15 17 18 17 17 19 22 21 19
8 21 9 8 7 8 15 20 26 35 35 37 38 39 42 45 47 47 46 46 48 48 48 49 52 46 47 44 41 42 35 26 27 27 26 24 21 16 12 11 11 12 14 14 16 17 18 19 18 20 21 21 18 17
17 21 9 14 13 30 42 39 30 32 34 33 37 33 41 48 49 45 44 47 49 52 49 51 54 51 43 48 43 39 22 17 21 21 20 19 20 20 19 17 17 17 16 16 16 16 16 17 18 19 19 18 14 13
18 16 11 12 15 36 27 21 15 17 26 28 31 36 38 35 40 50 44 43 44 46 46 45 45 47 40 40 31 20 19 23 22 18 18 19 19 18 18 20 21 21 20 21 20 20 19 19 18 17 16 14 14 14
7 13 12 13 9 4 11 6 5 6 16 19 27 34 38 35 28 41 43 42 43 43 43 40 39 36 26 21 19 22 25 25 24 25 25 25 24 23 21 18 17 17 18 17 17 16 15 13 13 13 13 13 13 13

GFSWCAN_850_spd_150.txt.gz
Wind_Speed
25 23 23 22 22 22 20 20 22 22 19 16 17 17 15 13 10 11 12 10 9 7 15 14 11 13 10 8 3 5 2 3 4 2 2 3 3 3 2 4 6 7 7 5 5 5 9 14 8 6 4 2 4 4
26 24 22 22 21 21 20 21 22 22 22 18 16 17 16 14 13 12 14 12 12 14 13 18 22 20 21 17 10 10 2 4 7 3 2 3 3 3 4 4 5 4 7 5 10 8 6 24 13 15 11 14 14 15
28 26 24 22 22 22 23 23 24 25 23 20 16 18 17 17 16 15 14 15 12 12 23 14 9 9 17 26 22 7 8 8 6 8 2 2 4 1 3 5 5 6 15 5 1 8 23 35 31 29 29 30 22 20
30 29 28 25 24 26 26 27 27 25 24 19 17 17 18 18 18 17 17 14 13 8 6 7 9 12 9 11 23 27 17 9 9 5 4 3 3 8 3 4 4 5 4 6 10 19 29 38 35 30 28 22 19 18
30 30 29 29 29 29 29 30 30 27 24 17 18 19 18 18 19 17 19 21 17 12 5 9 19 30 26 19 16 21 28 19 7 3 5 3 5 4 5 4 12 16 12 9 10 15 20 13 12 12 11 19 24 19
27 28 27 27 28 29 30 30 30 27 25 17 19 20 18 18 18 16 11 18 25 21 5 4 6 12 13 9 13 16 19 19 13 7 6 7 11 4 3 4 10 23 34 38 27 20 26 24 13 13 14 14 18 20
23 23 23 23 23 25 26 26 25 24 20 17 19 20 19 19 24 24 9 4 4 20 5 6 5 4 5 5 8 9 12 7 12 6 7 9 5 9 3 8 6 20 28 36 39 35 31 29 23 18 18 16 15 17
19 19 19 20 20 21 20 19 18 17 16 17 18 19 19 18 23 31 33 26 11 14 7 3 3 4 10 5 4 8 6 10 9 6 6 5 7 10 7 30 24 23 33 39 32 30 39 29 17 18 22 18 19 18
21 20 18 19 19 18 18 18 16 16 16 14 16 15 12 27 27 30 29 26 23 14 5 7 3 3 11 7 6 8 8 4 7 6 6 10 5 8 19 25 23 24 20 19 17 23 35 34 37 35 32 26 22 18
22 21 20 18 17 18 17 14 14 15 14 14 12 9 8 8 25 19 10 9 19 11 12 6 9 3 14 10 6 7 5 3 3 6 5 4 8 28 48 57 43 37 31 30 31 32 27 33 37 36 30 24 21 16
24 23 22 20 18 15 14 15 13 13 13 15 9 7 6 13 14 9 8 10 10 5 8 11 27 11 10 4 4 11 3 3 3 3 4 4 4 12 34 37 30 25 30 40 39 39 34 31 31 31 27 22 18 16
25 24 23 21 19 18 15 13 13 11 8 8 7 11 15 9 8 6 5 6 5 5 10 8 8 14 10 8 6 8 3 3 6 8 2 4 7 29 21 21 20 18 19 22 25 36 38 33 30 26 22 20 18 16
27 25 23 23 20 16 15 13 13 16 18 11 9 8 9 8 6 7 9 5 4 7 12 12 4 11 9 9 4 4 6 6 8 3 5 7 13 16 25 22 23 20 16 17 19 20 28 31 32 31 27 21 20 18
28 26 25 24 23 20 16 14 14 13 8 6 7 7 6 6 6 4 3 2 6 7 18 18 6 5 6 4 3 5 4 2 3 4 7 6 20 32 25 22 20 16 15 16 19 18 21 28 32 36 40 31 25 22
28 27 25 26 25 21 18 15 12 9 7 6 6 6 9 9 4 4 6 6 5 11 22 9 3 7 3 4 4 4 5 6 7 6 5 5 16 17 14 10 10 14 18 20 20 21 23 23 24 25 27 28 25 23
27 26 29 27 26 21 20 18 15 17 6 7 9 7 10 3 7 6 11 11 10 15 16 5 3 3 5 4 6 8 5 8 5 4 13 19 22 22 20 14 16 16 22 27 27 28 27 28 28 30 27 27 27 26
26 31 31 26 22 20 23 19 15 12 10 8 11 26 29 22 20 17 14 12 15 23 4 5 5 8 1 3 4 5 6 4 8 19 21 20 26 32 35 30 30 28 33 30 27 31 40 35 28 32 34 33 31 26
32 31 30 27 18 21 20 19 11 9 11 20 10 21 17 21 21 22 15 12 17 14 7 5 6 6 6 6 4 4 19 30 33 32 31 35 35 36 38 33 35 38 33 30 31 30 37 41 40 35 37 36 32 29
34 32 32 27 25 23 12 12 17 7 19 22 29 29 24 28 32 29 23 22 25 24 7 5 6 5 5 7 9 25 30 30 29 32 34 40 42 42 46 44 36 35 33 40 45 38 38 39 40 43 36 37 36 32
33 32 33 34 32 17 10 9 13 10 10 17 29 29 26 31 34 34 33 27 25 18 11 6 8 15 16 27 29 32 31 33 36 35 38 43 44 41 40 40 43 46 45 44 41 40 41 42 35 35 40 38 36 37
31 34 34 33 38 31 13 11 12 9 9 12 22 23 18 22 24 24 27 23 22 26 13 29 38 44 46 44 39 44 46 45 42 42 42 44 46 42 44 45 48 49 48 49 46 44 45 41 43 43 46 41 43 42
35 34 35 36 26 12 19 18 9 10 10 7 7 10 8 9 15 15 13 19 22 29 33 36 39 40 39 41 45 46 45 44 46 45 46 45 43 44 44 41 38 43 47 48 45 45 44 45 46 44 39 44 47 44
31 31 31 24 15 17 6 24 12 11 4 4 9 6 7 11 20 18 10 21 32 39 40 39 39 37 41 48 49 52 50 47 47 47 46 44 45 44 44 44 43 41 41 42 39 41 42 40 40 40 38 34 29 26
31 19 12 10 17 6 12 8 11 10 11 5 3 4 5 6 7 11 8 23 36 38 35 32 38 42 39 39 40 40 40 39 39 40 40 39 39 41 43 42 41 41 41 42 42 40 41 42 41 38 34 28 26 27
10 11 10 7 11 6 6 5 5 3 5 7 6 5 4 9 4 4 6 18 31 32 35 39 37 35 32 31 30 32 35 35 35 37 45 43 41 42 43 44 40 41 38 38 40 41 42 40 36 34 27 26 27 27
11 15 10 11 9 7 6 6 7 9 4 6 7 5 9 3 4 6 6 32 33 36 35 30 27 25 27 28 31 35 37 38 38 35 39 38 36 38 40 35 36 37 36 34 30 32 33 31 27 25 24 24 23 22
6 4 7 10 10 8 4 2 7 4 7 7 4 5 4 5 8 5 27 32 34 36 33 31 25 29 33 40 44 44 47 50 49 46 48 42 39 36 38 37 35 31 26 22 19 16 16 17 18 19 20 19 18 18
6 13 8 13 8 13 5 3 7 8 5 8 4 6 8 10 9 33 34 35 31 36 42 45 45 43 47 53 49 50 53 54 47 47 42 39 41 35 28 28 28 25 21 19 18 16 16 17 17 14 14 16 15 14
6 15 18 5 4 6 6 8 6 13 20 20 8 12 13 36 39 39 44 48 47 45 45 45 49 52 49 50 51 51 48 43 40 38 36 35 34 27 21 17 14 14 15 16 15 15 15 14 13 13 14 16 17 17
7 22 7 7 7 9 13 22 24 34 35 36 36 34 36 39 47 54 47 45 45 47 50 50 50 45 46 44 46 48 44 40 37 35 36 33 28 23 15 10 9 9 10 10 12 14 16 17 19 20 21 20 18 16
14 23 4 8 6 20 35 36 33 29 29 32 35 31 35 44 48 47 49 57 54 52 50 49 49 47 45 45 41 40 42 35 31 29 24 22 21 21 19 16 16 15 14 13 13 13 15 17 18 18 17 15 12 11
16 15 7 5 7 25 22 16 16 19 25 24 28 31 35 30 32 43 58 45 44 47 51 46 45 49 43 41 38 37 33 34 32 24 16 14 14 15 17 18 18 17 16 15 15 15 15 15 15 15 15 15 12 10
7 7 8 2 1 4 10 7 3 4 10 13 23 31 30 26 17 48 50 33 27 33 40 40 40 38 36 34 34 30 30 20 15 15 17 19 20 20 20 19 18 16 15 14 14 15 15 14 13 11 9 9 10 9

GFSWCAN_850_spd_153.txt.gz
Wind_Speed
24 22 21 21 21 20 17 18 17 18 19 16 13 12 12 13 13 12 11 10 8 7 17 14 14 12 10 6 3 2 2 2 2 2 3 3 3 4 2 4 6 8 8 5 5 6 9 13 7 8 7 6 12 11
25 26 25 24 23 22 20 19 18 19 20 20 18 13 12 14 15 15 14 12 12 13 14 18 22 21 21 18 9 9 3 4 9 2 2 2 2 2 4 4 4 3 7 6 12 8 8 28 14 17 10 13 15 16
28 27 26 25 25 24 22 22 22 21 20 23 21 15 11 14 16 18 17 16 14 13 21 14 4 3 13 22 24 8 8 9 7 7 2 3 5 3 4 5 4 5 19 5 1 9 26 30 34 33 29 29 28 27
30 31 30 29 27 25 25 25 25 25 23 21 20 15 12 14 15 19 21 18 15 8 6 7 7 7 5 7 16 29 23 11 8 7 5 3 3 8 3 5 5 9 7 7 13 25 28 36 34 34 32 28 32 28
28 29 29 28 28 27 27 28 28 28 27 24 20 15 15 16 16 17 22 24 20 14 4 8 18 30 26 25 22 23 31 24 11 4 5 3 5 2 5 4 13 18 11 9 10 26 21 23 21 16 21 22 20 22
25 25 25 24 24 24 25 27 28 27 26 23 18 14 15 16 15 15 13 21 29 26 5 3 6 13 14 10 11 17 19 21 16 8 6 8 12 3 3 5 14 25 35 39 32 40 33 36 30 26 26 24 22 18
19 20 20 20 19 20 21 22 23 22 20 17 16 15 16 16 20 26 10 5 4 22 5 5 5 4 5 8 8 10 13 10 10 7 7 6 3 8 3 6 31 18 26 34 40 41 35 37 27 26 27 25 23 24
19 18 17 17 17 17 18 19 19 16 14 14 15 16 17 17 20 27 33 29 13 13 8 3 3 3 9 6 5 7 7 11 9 6 5 5 6 7 6 33 47 30 27 29 35 37 40 44 36 32 27 27 27 27
21 19 19 18 17 16 16 16 14 13 13 12 13 14 17 18 22 29 28 26 27 16 6 9 4 4 10 7 5 7 7 4 6 5 5 8 4 7 20 29 29 25 22 29 28 27 31 29 31 35 33 30 29 29
22 21 20 18 17 15 14 14 13 12 11 12 11 9 7 7 21 17 12 11 18 10 11 6 9 4 14 13 10 7 6 3 3 6 6 4 5 45 46 58 53 45 40 34 27 35 30 33 34 33 32 34 36 37
22 22 21 20 19 17 15 13 12 11 9 10 6 6 5 8 10 7 8 9 9 4 8 10 26 11 14 5 4 11 3 3 3 4 5 3 4 13 29 29 29 27 24 24 28 34 33 34 35 33 31 30 28 29
25 23 22 21 19 18 16 15 13 10 8 6 6 9 10 8 8 6 5 5 5 5 7 6 6 14 9 8 6 8 4 4 6 10 3 4 7 32 21 22 24 25 19 20 19 22 22 24 28 31 32 32 29 22
25 26 24 22 20 18 16 14 13 11 11 14 6 5 6 9 6 6 7 3 3 6 11 9 4 11 9 10 5 4 5 6 9 2 4 6 21 20 28 27 24 19 15 15 19 20 20 23 23 23 26 26 24 22
26 25 25 24 21 18 18 16 13 11 5 6 5 5 7 5 5 5 4 4 8 6 16 17 6 6 6 5 2 4 4 4 3 4 7 4 14 16 18 19 22 20 19 24 28 28 25 25 25 25 25 27 27 32
27 26 25 24 23 21 18 17 14 11 8 8 7 6 8 11 7 6 11 7 3 6 17 6 3 7 2 3 3 3 4 6 7 6 4 4 15 20 21 26 31 35 37 38 37 30 31 31 29 30 26 25 27 28
26 25 29 26 25 22 20 20 19 20 7 8 10 7 8 4 6 6 8 9 7 15 13 3 2 3 5 4 6 8 4 7 5 4 11 14 22 27 27 26 26 28 34 35 30 33 38 35 31 29 28 30 27 28
27 31 29 27 26 25 22 22 18 13 10 9 11 23 19 9 7 9 7 12 10 16 3 4 4 7 2 4 4 4 5 4 9 22 32 32 27 35 41 46 49 46 37 41 43 43 42 35 28 30 35 37 32 31
31 31 29 26 24 22 24 28 15 11 12 19 10 23 16 16 13 18 13 11 12 11 5 4 5 7 6 6 7 5 17 27 33 33 32 33 38 47 48 49 48 45 41 40 40 39 36 34 38 43 42 38 34 36
31 31 29 29 23 26 11 13 16 10 23 25 35 28 23 23 23 23 18 17 17 20 15 6 6 7 9 10 12 20 26 27 28 33 39 44 45 41 42 43 45 46 48 45 43 46 45 45 46 44 41 37 37 43
30 29 29 28 26 25 9 9 14 13 10 18 31 31 26 29 32 32 29 27 26 24 12 6 13 30 33 36 36 32 33 36 41 39 41 42 40 40 41 41 45 47 48 48 47 47 48 46 43 41 41 41 40 41
29 31 28 29 32 36 15 9 10 9 9 10 20 25 23 27 33 32 31 30 15 14 11 31 39 42 40 38 41 42 46 46 40 36 38 41 44 44 46 45 44 41 41 43 45 46 42 47 47 42 40 40 38 37
31 30 31 30 21 14 13 19 12 11 10 7 5 17 14 17 24 25 26 13 14 31 30 35 38 38 36 37 45 48 43 41 43 43 42 40 41 40 42 43 41 41 41 41 40 43 47 46 44 41 37 39 40 40
30 28 26 24 15 13 8 17 14 16 7 6 9 4 4 6 11 16 8 19 31 41 44 41 43 42 43 45 45 44 43 41 41 39 38 36 37 40 40 41 42 41 40 43 42 41 43 45 44 41 39 38 39 39
32 22 14 11 18 6 11 10 10 9 9 4 4 4 3 11 9 9 5 20 40 40 35 40 43 42 39 38 38 40 43 40 37 36 35 34 36 37 39 39 39 38 37 41 41 40 43 44 40 39 37 35 37 35
11 12 11 7 13 7 5 7 5 3 4 4 5 5 4 9 4 4 6 16 29 33 39 39 36 38 37 40 44 43 34 34 32 30 30 33 39 39 38 39 38 38 37 39 39 37 36 35 37 36 35 32 30 28
9 15 8 12 9 7 7 6 6 6 5 7 8 4 9 4 4 7 5 30 32 37 39 38 37 37 39 39 40 38 39 38 34 33 38 37 39 37 39 40 42 44 36 33 33 32 29 25 24 23 23 21 18 15
7 7 8 10 11 7 4 3 7 4 7 7 4 4 4 5 8 5 27 35 40 41 39 37 39 41 42 42 41 38 40 42 47 47 46 50 50 46 45 45 45 43 35 32 32 29 28 22 17 15 14 13 13 14
8 13 10 13 9 13 6 3 6 7 5 7 7 6 9 10 8 31 37 37 35 37 38 39 39 41 42 44 47 50 52 53 51 49 51 54 52 48 45 39 34 26 25 29 25 21 22 21 18 16 15 14 11 10
10 19 17 7 4 6 7 7 7 15 21 22 9 11 11 38 42 38 42 44 43 42 44 49 54 50 47 50 53 54 52 51 47 45 45 45 46 48 36 28 22 20 21 20 18 19 18 17 16 15 14 13 12 13
14 21 7 6 7 9 15 24 27 39 38 40 36 33 33 37 44 47 45 47 48 53 56 50 50 45 45 45 46 45 44 42 41 40 38 42 44 42 35 29 23 16 14 14 14 14 16 17 17 18 18 17 17 16
8 19 3 6 5 21 38 36 36 33 26 28 35 32 36 40 41 44 50 54 56 56 50 48 48 46 44 43 44 43 43 41 37 38 39 39 35 32 32 26 23 19 18 18 17 16 15 17 19 20 19 17 15 13
17 16 8 6 5 24 15 10 18 23 27 25 24 30 32 27 28 40 49 45 44 43 45 42 40 43 41 42 41 41 43 43 40 36 34 34 34 29 19 16 18 21 22 20 18 17 17 17 17 17 15 14 14 14
7 5 7 4 2 4 10 6 2 4 8 11 21 31 32 26 14 36 41 32 29 29 31 35 39 39 39 40 32 26 26 27 26 27 30 31 23 20 18 17 19 20 20 19 18 17 16 15 14 14 14 14 12 11

GFSWCAN_850_spd_159.txt.gz
Wind_Speed
20 20 19 20 19 19 20 21 22 20 18 18 17 16 15 14 12 11 11 11 9 6 17 20 16 11 7 6 3 4 1 3 2 3 3 3 3 4 2 4 6 8 8 5 5 6 10 14 7 9 6 5 7 10
25 24 25 25 25 24 23 21 21 21 20 19 17 16 16 13 11 11 16 13 15 16 13 26 30 28 22 21 13 8 4 5 10 2 2 2 3 2 4 4 0 4 7 6 11 9 6 22 13 16 20 23 31 30
30 29 29 28 28 27 26 25 24 23 21 22 21 18 17 15 11 15 16 18 18 17 23 15 8 8 13 18 27 10 9 10 8 9 1 2 6 4 4 6 5 5 11 4 2 16 24 34 37 44 41 40 38 38
30 31 29 28 29 28 27 26 25 24 23 22 22 21 19 17 14 14 20 19 20 10 6 9 13 9 7 9 16 29 29 10 7 7 5 3 3 8 3 4 4 5 9 7 9 28 31 41 29 24 24 22 25 29
23 27 29 28 29 28 26 25 24 23 21 21 21 21 19 17 15 16 22 26 23 20 5 10 25 37 36 32 21 19 27 30 19 5 4 3 6 3 4 3 10 13 9 6 8 21 20 30 31 32 35 34 37 37
19 20 21 23 23 23 22 22 21 21 19 18 19 17 17 12 12 14 12 15 18 27 7 3 10 17 20 21 16 18 25 20 16 9 6 7 11 4 3 5 8 22 29 34 30 36 35 39 40 44 42 32 30 35
21 20 19 18 18 17 16 16 17 17 17 17 17 14 13 11 16 19 7 3 3 10 5 5 6 9 12 8 12 14 16 12 13 7 8 7 7 11 3 8 39 26 17 23 27 32 31 32 28 35 38 36 32 31
22 22 22 19 18 17 15 15 15 14 15 15 16 15 12 14 19 24 29 28 24 13 8 3 3 4 7 5 6 9 7 10 10 7 5 6 5 8 7 28 33 26 26 30 27 29 33 36 37 29 24 24 24 25
21 20 20 20 19 17 17 15 15 14 14 15 14 13 14 17 18 23 23 22 25 19 6 7 4 4 8 6 6 8 8 4 6 5 6 9 4 7 20 14 17 27 22 35 40 35 29 21 25 25 24 25 24 25
20 21 20 19 19 17 17 16 14 14 13 12 11 5 5 6 12 9 7 11 16 10 11 6 10 4 12 12 7 7 6 3 3 6 6 4 4 35 38 41 39 31 26 21 19 21 23 24 27 29 27 27 25 27
21 20 20 19 18 17 16 16 15 14 12 8 4 5 8 6 3 5 6 8 8 4 8 9 22 10 13 4 4 11 3 2 3 4 6 3 3 5 4 13 10 13 14 12 13 19 22 23 26 30 29 29 29 31
22 21 20 19 19 18 15 14 14 14 8 5 5 8 6 5 7 5 4 5 5 5 6 6 6 10 8 8 7 8 3 3 6 9 3 3 5 8 4 10 15 15 18 21 23 25 28 28 29 31 34 36 34 34
24 23 21 20 19 19 18 15 13 14 12 12 5 4 5 8 9 6 7 3 3 6 9 8 4 8 8 10 5 4 4 5 9 3 4 5 4 2 9 16 17 18 23 25 26 28 32 35 35 33 36 37 36 37
24 25 23 21 20 18 17 19 16 15 11 6 7 5 5 6 6 5 4 3 3 3 12 13 4 8 5 3 3 4 4 3 3 3 6 3 10 4 14 16 16 22 25 30 32 35 39 41 44 43 41 39 39 40
25 25 24 25 22 21 18 18 19 20 13 9 7 6 7 11 8 5 8 7 3 3 8 5 4 6 3 3 3 2 4 5 5 5 3 14 1 15 18 17 19 30 33 35 34 37 39 41 43 46 43 41 39 37
26 25 28 26 25 23 21 20 21 26 11 9 10 8 9 5 9 13 11 9 7 8 8 3 3 2 5 4 4 7 3 7 4 3 6 7 21 25 25 26 28 29 32 35 38 37 40 41 40 43 44 40 38 36
27 30 30 27 25 23 23 24 22 16 9 10 11 26 25 9 14 16 15 13 8 8 2 4 4 8 1 4 4 4 5 3 4 15 25 30 36 40 40 39 40 44 43 42 40 41 46 46 45 43 46 44 40 39
29 30 28 27 24 23 24 27 13 10 11 11 7 27 28 29 31 28 27 21 17 11 9 7 5 2 4 6 8 7 17 31 37 34 40 44 41 41 42 46 43 38 40 41 40 44 43 41 41 44 43 42 41 41
30 29 30 30 26 24 11 10 21 6 13 9 24 31 22 25 35 39 33 31 35 37 16 7 5 4 8 14 20 29 34 33 33 40 40 46 40 41 45 42 43 42 46 42 43 45 40 38 39 41 41 40 40 42
28 28 29 31 29 22 8 8 11 10 12 21 28 34 26 24 32 34 35 35 35 23 12 6 10 24 25 36 42 40 40 44 39 35 39 42 38 38 40 41 45 45 44 43 44 40 39 41 41 41 39 39 38 43
27 30 28 31 38 39 15 9 11 9 9 9 20 33 25 25 27 29 34 39 25 15 11 24 34 40 44 47 48 48 44 45 41 39 40 40 45 40 41 46 44 43 42 41 42 40 37 38 41 43 41 40 36 39
31 27 27 29 28 12 18 21 11 13 9 6 6 8 7 6 18 27 34 14 13 30 31 36 42 45 46 47 51 56 53 45 45 47 49 45 39 40 44 45 38 40 41 43 41 39 38 39 43 43 43 42 41 41
26 24 22 22 18 15 7 17 14 13 5 6 8 3 4 7 12 23 10 25 35 36 39 42 47 51 51 55 53 48 50 51 48 45 43 45 42 43 44 46 45 40 42 43 38 38 38 40 46 48 42 45 39 42
24 17 10 10 16 6 12 10 12 10 10 4 4 4 4 12 15 7 7 24 34 38 40 44 44 47 46 43 47 53 52 52 45 46 49 41 44 45 42 43 42 43 43 42 42 43 45 47 49 47 45 43 39 39
11 11 10 7 8 8 7 7 7 4 7 8 8 6 4 9 4 4 4 9 29 38 45 49 43 39 42 44 42 44 51 50 47 41 46 44 42 40 41 42 44 44 43 42 41 40 46 46 47 46 49 41 40 40
8 14 9 7 5 5 5 6 7 9 4 4 7 5 8 4 5 8 5 30 39 42 44 45 46 39 35 43 45 47 46 42 42 35 40 40 41 43 44 45 46 49 46 44 43 45 45 44 45 48 49 46 39 37
8 9 11 15 10 8 3 3 6 4 6 7 4 4 5 6 8 6 37 45 42 45 47 45 42 41 45 47 46 45 42 41 44 44 45 47 48 48 49 49 49 55 47 40 39 39 42 47 47 45 43 41 36 36
11 13 7 8 8 11 5 3 6 7 5 9 3 5 8 8 11 35 36 40 39 38 38 39 39 40 41 42 43 43 44 46 48 49 50 51 54 55 55 55 54 52 49 46 45 45 41 37 38 38 37 35 34 29
10 18 11 4 5 5 8 7 6 13 28 24 7 11 11 35 38 39 47 47 43 43 44 47 50 50 49 50 49 50 51 51 49 43 46 49 49 51 43 41 43 42 41 40 34 31 32 32 34 34 34 30 26 24
10 14 10 5 6 8 22 27 28 34 31 34 36 34 36 41 53 54 45 46 47 50 54 55 57 53 49 46 47 51 54 52 46 43 42 44 46 39 35 35 38 39 36 31 30 30 30 30 30 29 26 23 23 20
15 19 10 14 11 38 38 36 38 40 42 39 37 30 37 46 47 49 44 48 51 53 54 51 51 49 46 49 49 44 47 46 41 39 38 37 37 38 40 38 35 28 26 28 28 27 28 28 27 23 18 17 18 16
17 17 8 7 14 25 26 20 15 20 25 26 33 33 33 30 28 41 56 44 43 45 50 47 45 50 47 47 46 44 41 42 41 38 38 38 39 38 38 39 30 25 25 26 28 29 27 23 19 16 16 16 15 15
5 4 5 6 6 4 7 7 5 6 10 12 20 30 32 28 16 47 47 40 37 39 42 42 41 42 41 39 38 39 40 42 42 41 40 41 41 40 32 24 22 21 22 24 22 17 14 14 14 13 13 11 10 10